Location: Home
(51.5204°N, 2.5456°W)
Time: 10:04:49
(UTC+00:00)

Envisat - Visible Passes

Search period start: 14 December 2018 00:00
Search period end: 24 December 2018 00:00
Orbit: 764 x 766 km, 98.2° (Epoch: 13 December)

Date Brightness Start Highest point End Pass type
(mag) Time Alt. Az. Time Alt. Az. Time Alt. Az.
14 Dec 6.1 06:20:43 10° ENE 06:22:35 12° E 06:24:26 10° ESE visible
14 Dec 3.8 17:39:23 10° ESE 17:43:40 28° ENE 17:47:59 10° N visible
14 Dec 3.7 19:17:31 10° S 19:22:28 52° W 19:27:27 10° NNW visible
15 Dec 4.7 07:20:53 10° NNE 07:25:37 37° E 07:30:19 10° SSE visible
15 Dec 4.4 17:04:17 10° E 17:07:22 16° NE 17:10:26 10° NNE visible
15 Dec 2.8 18:40:34 10° SSE 18:45:39 82° ENE 18:50:46 10° NNW visible
15 Dec 5.6 20:22:04 10° SW 20:25:20 17° W 20:28:36 10° NW visible
16 Dec 5.8 06:44:51 10° NE 06:48:31 19° E 06:52:08 10° SE visible
16 Dec 3.3 18:04:15 10° SE 18:09:01 43° ENE 18:13:49 10° N visible
16 Dec 4.6 19:43:38 10° SSW 19:48:11 32° W 19:52:45 10° NNW visible
17 Dec 4.0 17:28:35 10° ESE 17:32:35 24° ENE 17:36:36 10° N visible
17 Dec 3.3 19:06:12 10° S 19:11:13 64° WSW 19:16:18 10° NNW visible
18 Dec 5.1 07:09:50 10° NNE 07:14:20 31° E 07:18:48 10° SSE visible
18 Dec 4.6 16:53:49 10° E 16:56:20 14° NE 16:58:51 10° NNE visible
18 Dec 2.9 18:29:26 10° SSE 18:34:28 68° ENE 18:39:32 10° N visible
18 Dec 5.3 20:10:14 10° SW 20:13:59 21° W 20:17:46 10° NW visible
19 Dec 5.9 06:34:04 10° NE 06:37:10 16° E 06:40:14 10° SE visible
19 Dec 3.5 17:53:18 10° SE 17:57:54 36° ENE 18:02:31 10° N visible
19 Dec 4.2 19:32:09 10° SSW 19:36:54 39° W 19:41:41 10° NNW visible
20 Dec 4.2 17:17:51 10° ESE 17:21:31 20° ENE 17:25:11 10° N visible
20 Dec 3.0 18:54:55 10° S 19:00:00 77° WSW 19:05:08 10° NNW visible
20 Dec 5.9 20:37:43 10° WSW 20:39:55 13° W 20:42:06 10° WNW visible
21 Dec 5.4 06:58:49 10° NE 07:03:02 25° E 07:07:13 10° SSE visible
21 Dec 4.7 16:43:34 10° ENE 16:45:18 12° NE 16:47:03 10° NNE visible
21 Dec 3.0 18:18:22 10° SE 18:23:18 56° ENE 18:28:17 10° N visible
21 Dec 5.0 19:58:31 10° SSW 20:02:40 25° W 20:06:50 10° NW visible
22 Dec 6.0 06:23:29 10° ENE 06:25:48 13° E 06:28:05 10° ESE visible
22 Dec 3.7 17:42:24 10° ESE 17:46:47 30° ENE 17:51:11 10° N visible
22 Dec 3.8 19:20:44 10° S 19:25:38 48° W 19:30:35 10° NNW visible
23 Dec 4.6 07:24:00 10° NNE 07:28:48 40° E 07:33:34 10° SSE visible
23 Dec 4.4 17:07:12 10° E 17:10:27 17° NE 17:13:43 10° NNE visible
23 Dec 2.9 18:43:43 10° SSE 18:48:48 87° ENE 18:53:55 10° NNW visible
23 Dec 5.7 20:25:32 10° WSW 20:28:32 16° W 20:31:34 10° NW visible
